Cloud_Cover
1 0 39 98 100 62 91 8 5 23 2 2 2 1 24 100 100 100 100 81 97 100 100 100 100 100 100 75 100 72 0 0 1 0 0 4 0 0 0 3 5 4 3 2 0 0 0 5 0
7 5 23 91 34 66 83 32 15 2 0 0 2 75 14 6 89 100 100 100 100 64 98 24 20 100 80 0 0 0 0 0 0 0 0 1 2 0 0 5 5 2 0 2 3 0 2 4 5
5 5 33 17 100 86 49 0 0 0 0 7 0 10 10 0 0 1 69 100 72 73 14 2 0 0 0 0 0 0 0 1 0 1 0 0 1 0 0 1 0 0 0 0 1 5 16 2 0
6 2 4 98 73 95 3 3 0 0 0 7 59 0 0 0 0 0 0 9 4 2 1 0 0 0 0 0 0 0 4 2 0 0 0 0 0 0 2 0 0 0 0 0 1 7 11 0 0
86 58 32 87 28 5 54 42 78 5 12 1 42 0 0 0 0 0 0 31 19 42 0 0 0 0 0 0 0 0 5 4 0 0 1 8 2 1 3 0 5 3 5 100 38 5 4 0 0
100 7 83 68 21 1 8 58 2 12 0 0 0 0 0 0 0 0 0 0 10 0 0 0 0 0 4 8 0 3 7 3 0 2 6 55 83 5 5 5 6 82 25 100 100 24 7 4 2
97 28 92 42 22 95 51 29 25 6 0 0 30 0 0 0 0 0 0 17 91 0 0 0 0 0 0 0 0 1 5 5 7 54 16 6 5 5 26 5 61 89 51 100 86 23 5 1 4
38 31 100 50 37 5 6 11 98 3 0 0 29 3 0 0 0 0 0 0 100 20 0 0 0 0 0 0 0 1 0 5 3 5 5 5 31 7 9 12 14 6 32 55 6 95 34 41 100
100 54 100 78 57 0 64 7 0 0 0 3 0 2 0 0 0 0 0 7 14 67 16 0 0 0 0 50 0 0 0 0 2 4 16 6 63 100 100 100 100 100 84 8 97 38 7 100 100
100 100 71 12 80 5 100 77 48 29 56 34 3 3 4 4 0 1 5 2 13 8 42 0 0 0 9 37 8 7 3 3 1 4 10 39 85 100 100 100 100 41 99 29 6 88 74 24 100
35 5 49 96 7 100 12 56 100 62 100 72 72 3 7 45 51 13 87 32 16 11 96 1 12 0 5 36 100 100 100 100 93 74 5 6 26 82 92 92 69 100 100 62 58 49 100 100 60
7 12 100 96 88 40 97 41 100 8 67 0 24 95 26 0 27 56 69 99 100 4 10 3 100 50 10 14 55 66 100 100 100 100 100 100 85 90 99 40 3 2 91 100 100 54 100 100 73
100 100 16 51 100 95 100 89 96 17 4 0 0 4 82 2 0 0 0 1 5 96 100 52 11 23 82 100 96 100 100 100 68 100 94 100 61 67 17 9 85 90 20 36 100 94 29 63 100
12 90 95 27 100 100 100 100 76 52 34 0 1 5 52 11 0 0 0 0 13 5 6 56 4 5 3 4 1 5 58 99 6 69 100 15 49 86 98 38 0 0 3 39 50 100 100 100 97
76 100 100 100 99 100 100 100 87 85 61 0 0 0 0 0 0 0 5 86 99 72 4 5 5 5 9 5 33 10 57 100 100 99 100 100 100 100 4 83 92 7 8 4 99 98 54 52 30
59 100 100 48 1 4 9 100 100 68 58 9 0 0 3 0 0 3 4 1 5 0 4 0 0 3 28 30 27 93 87 94 100 98 100 65 100 50 85 29 4 99 48 82 36 6 5 19 66
71 94 74 88 68 100 28 100 3 26 62 28 1 0 0 0 0 0 0 0 0 0 0 0 0 0 0 0 0 0 0 1 0 22 74 100 99 87 75 42 5 85 100 100 100 54 53 100 56
99 43 48 86 17 92 99 19 12 0 21 12 6 0 0 0 0 0 0 0 0 0 0 0 0 0 0 0 0 0 0 0 0 0 0 0 0 0 4 86 100 89 72 98 100 100 98 96 62
100 100 70 5 22 67 8 43 2 0 1 0 0 0 0 0 0 0 0 0 0 0 0 0 0 0 0 0 0 0 0 0 0 0 0 0 0 0 0 0 100 100 100 100 100 100 100 100 92
98 40 54 19 13 93 39 5 95 1 1 1 3 0 0 0 0 0 0 0 0 0 0 0 0 0 0 0 0 0 0 0 0 0 0 2 0 0 0 4 4 96 100 100 100 100 100 100 100
73 100 100 51 2 54 19 23 4 1 2 0 0 0 0 0 0 0 0 0 0 0 0 0 0 0 0 0 0 0 0 0 0 0 0 0 0 13 0 0 0 1 28 72 72 100 100 100 100
36 53 24 90 63 21 76 75 10 43 80 11 3 4 0 0 0 0 0 0 0 0 0 0 0 0 0 0 0 0 0 0 0 0 0 0 0 0 0 0 0 0 0 0 0 7 65 98 100
9 5 32 67 98 100 96 100 9 15 24 18 100 71 2 0 0 0 0 0 0 0 0 0 0 0 0 0 0 0 0 0 0 0 27 92 16 0 0 0 0 0 0 0 0 0 5 5 52
2 76 84 97 62 12 3 7 11 0 2 54 37 5 5 6 5 0 0 0 0 0 0 0 0 0 0 0 0 0 0 0 0 0 0 6 20 50 40 53 5 2 0 0 27 40 50 31 18
63 65 65 100 92 94 40 34 5 5 0 64 3 98 68 98 38 16 2 4 0 0 0 0 0 0 0 0 0 0 0 0 0 0 0 0 0 4 46 79 11 0 0 0 2 16 18 53 100
20 95 96 40 99 58 6 92 76 4 0 3 6 18 33 54 69 100 4 2 51 1 0 0 0 0 0 0 0 0 0 0 0 0 0 0 0 0 0 1 21 13 56 2 0 0 0 5 5
7 71 13 2 86 100 96 96 19 5 92 32 98 1 4 100 35 46 100 100 100 100 0 0 0 0 0 0 0 0 0 0 0 0 0 0 0 0 0 0 0 2 4 0 0 2 0 4 6
0 1 2 5 44 64 100 83 27 38 97 6 0 0 0 0 1 2 61 100 100 93 0 0 0 0 0 0 0 0 0 0 0 0 0 0 0 0 0 0 0 0 4 3 3 16 2 1 6
5 2 2 39 3 28 89 99 98 42 4 0 0 0 0 0 0 0 0 0 36 11 0 0 0 0 0 0 0 0 0 0 0 0 0 0 0 0 0 0 0 0 0 0 0 3 1 0 0
0 0 0 0 0 61 24 35 98 15 5 2 0 0 0 0 0 0 0 0 0 0 0 0 0 0 0 0 0 0 0 0 0 0 0 0 0 0 0 0 0 0 0 0 0 0 12 9 24